Location: Shandelee
(41.8790°N, 74.8713°W)
Time: 04:22:36
(UTC+00:00)

Cosmos 1758 Rocket - Pass Details

Date: 29 October 2020
Orbit: 601 x 637 km, 82.5° (Epoch: 23 November)

Event Time Altitude Azimuth Distance (km) Brightness Sun altitude
Rises 22:20:13 0° 349° (NNW) 2,900 7.0 -5.0°
Reaches altitude 10° 22:22:28 10° 346° (NNW) 1,984 6.2 -5.4°
Maximum altitude 22:26:49 66° 265° (W) 671 4.1 -6.2°
Drops below altitude 10° 22:31:05 10° 183° (S) 1,949 6.3 -7.0°
Sets 22:33:17 0° 181° (S) 2,844 7.1 -7.4°
